PAL1806 RPMD-RPLL

Flight info

Callsign PAL1806
Flight time 1h 27m
Altitude 36000
Route ANKIN3R ANKIN B473 LAIYA LAIYA3R
Aircraft B77W/H-SDE1E2E3FGHIJ2J3J4J5M1RWXY/LB1D1

Departure

Time 2026-04-30 12:20
Airport Francisco Bangoy International Airport (RPMD)

Arrival

Time 2026-04-30 13:47
Airport Ninoy Aquino International Airport (RPLL)
Time Latitude Longitude Altitude Speed Heading
2026-04-30 11:44 7.12899 125.64517 121 ft 0 kts 319°
2026-04-30 12:02 7.12898 125.64517 121 ft 0 kts 319°
2026-04-30 12:08 7.12894 125.64521 121 ft 2 kts 319°
2026-04-30 12:08 7.12882 125.64531 121 ft 2 kts 319°
2026-04-30 12:08 7.12875 125.64537 121 ft 2 kts 318°
2026-04-30 12:08 7.12866 125.64548 121 ft 2 kts 299°
2026-04-30 12:09 7.12860 125.64562 121 ft 2 kts 281°
2026-04-30 12:09 7.12859 125.64575 121 ft 2 kts 266°
2026-04-30 12:09 7.12861 125.64588 121 ft 2 kts 252°
2026-04-30 12:09 7.12868 125.64601 121 ft 2 kts 235°
2026-04-30 12:10 7.12872 125.64607 121 ft 0 kts 228°
2026-04-30 12:12 7.12853 125.64585 121 ft 7 kts 230°
2026-04-30 12:12 7.12818 125.64543 121 ft 8 kts 230°
2026-04-30 12:13 7.12776 125.64494 121 ft 9 kts 230°
2026-04-30 12:13 7.12730 125.64451 121 ft 8 kts 196°
2026-04-30 12:13 7.12671 125.64471 121 ft 9 kts 142°
2026-04-30 12:13 7.12617 125.64516 121 ft 10 kts 139°
2026-04-30 12:14 7.12561 125.64555 121 ft 9 kts 168°
2026-04-30 12:14 7.12502 125.64529 121 ft 9 kts 227°
2026-04-30 12:14 7.12459 125.64477 121 ft 9 kts 231°
2026-04-30 12:14 7.12415 125.64421 121 ft 11 kts 232°
2026-04-30 12:15 7.12363 125.64359 121 ft 12 kts 230°
2026-04-30 12:15 7.12305 125.64290 121 ft 13 kts 229°
2026-04-30 12:15 7.12241 125.64217 121 ft 13 kts 229°
2026-04-30 12:15 7.12179 125.64144 121 ft 13 kts 229°
2026-04-30 12:16 7.12120 125.64075 121 ft 12 kts 230°
2026-04-30 12:16 7.12063 125.64008 121 ft 12 kts 228°
2026-04-30 12:16 7.12006 125.63945 121 ft 12 kts 229°
2026-04-30 12:16 7.11951 125.63882 121 ft 11 kts 229°
2026-04-30 12:17 7.11846 125.63759 121 ft 11 kts 229°
2026-04-30 12:17 7.11795 125.63699 121 ft 11 kts 230°
2026-04-30 12:17 7.11760 125.63650 121 ft 7 kts 248°
2026-04-30 12:18 7.11756 125.63598 121 ft 7 kts 272°
2026-04-30 12:18 7.11744 125.63549 121 ft 7 kts 227°
2026-04-30 12:18 7.11700 125.63544 121 ft 6 kts 146°
2026-04-30 12:18 7.11696 125.63580 121 ft 6 kts 55°
2026-04-30 12:19 7.11700 125.63585 121 ft 0 kts 52°
2026-04-30 12:19 7.11708 125.63595 121 ft 9 kts 51°
2026-04-30 12:19 7.11903 125.63823 121 ft 82 kts 49°
2026-04-30 12:19 7.12440 125.64445 121 ft 152 kts 49°
2026-04-30 12:20 7.13209 125.65356 514 ft 177 kts 49°
2026-04-30 12:20 7.14043 125.66280 1316 ft 182 kts 43°
2026-04-30 12:20 7.15117 125.66947 1928 ft 190 kts 17°
2026-04-30 12:20 7.16469 125.67062 2421 ft 206 kts 354°
2026-04-30 12:21 7.17945 125.66848 3017 ft 221 kts 352°
2026-04-30 12:21 7.19521 125.66600 3613 ft 237 kts 352°
2026-04-30 12:21 7.21208 125.66335 4205 ft 253 kts 352°
2026-04-30 12:21 7.22924 125.65799 4827 ft 269 kts 330°
2026-04-30 12:22 7.24408 125.64601 5625 ft 278 kts 320°
2026-04-30 12:22 7.25838 125.63287 6459 ft 283 kts 319°
2026-04-30 12:22 7.27292 125.61942 7277 ft 288 kts 319°
2026-04-30 12:22 7.28765 125.60579 8059 ft 292 kts 320°
2026-04-30 12:23 7.30266 125.59190 8856 ft 297 kts 319°
2026-04-30 12:23 7.31792 125.57777 9621 ft 301 kts 320°
2026-04-30 12:23 7.33339 125.56344 10382 ft 307 kts 320°
2026-04-30 12:23 7.34969 125.54836 10875 ft 324 kts 320°
2026-04-30 12:24 7.36649 125.53282 11374 ft 340 kts 320°
2026-04-30 12:24 7.38438 125.51628 11892 ft 356 kts 320°
2026-04-30 12:24 7.40313 125.49895 12462 ft 371 kts 320°
2026-04-30 12:24 7.42242 125.48108 13019 ft 386 kts 320°
2026-04-30 12:25 7.44260 125.46239 13682 ft 398 kts 319°
2026-04-30 12:25 7.46311 125.44337 14553 ft 404 kts 319°
2026-04-30 12:25 7.48385 125.42414 15492 ft 409 kts 319°
2026-04-30 12:25 7.50481 125.40470 16402 ft 415 kts 319°
2026-04-30 12:26 7.52613 125.38492 17289 ft 420 kts 319°
2026-04-30 12:26 7.54070 125.37139 17852 ft 424 kts 319°
2026-04-30 12:26 7.56253 125.35114 18667 ft 431 kts 319°
2026-04-30 12:26 7.58468 125.33058 19460 ft 437 kts 319°
2026-04-30 12:27 7.61488 125.30256 20487 ft 445 kts 319°
2026-04-30 12:27 7.63801 125.28108 21238 ft 452 kts 319°
2026-04-30 12:27 7.66101 125.25971 22004 ft 456 kts 319°
2026-04-30 12:27 7.68433 125.23806 22768 ft 460 kts 319°
2026-04-30 12:28 7.70812 125.21595 23561 ft 464 kts 319°
2026-04-30 12:28 7.73191 125.19386 24316 ft 468 kts 319°
2026-04-30 12:28 7.75585 125.17161 24992 ft 475 kts 319°
2026-04-30 12:28 7.78027 125.14890 25717 ft 479 kts 319°
2026-04-30 12:29 7.80492 125.12598 26434 ft 484 kts 318°
2026-04-30 12:29 7.82983 125.10282 27153 ft 489 kts 318°
2026-04-30 12:29 7.85510 125.07931 27873 ft 493 kts 318°
2026-04-30 12:29 7.88056 125.05563 28548 ft 498 kts 318°
2026-04-30 12:30 7.90622 125.03175 29234 ft 503 kts 318°
2026-04-30 12:30 7.93166 125.00806 30047 ft 504 kts 319°
2026-04-30 12:30 7.95735 124.98413 31081 ft 499 kts 319°
2026-04-30 12:30 7.98297 124.96075 32205 ft 490 kts 322°
2026-04-30 12:31 8.00919 124.93935 33240 ft 484 kts 323°
2026-04-30 12:31 8.03547 124.91825 34081 ft 483 kts 323°
2026-04-30 12:31 8.06168 124.89717 34805 ft 483 kts 323°
2026-04-30 12:31 8.08810 124.87584 35578 ft 482 kts 323°
2026-04-30 12:32 8.10553 124.86174 35991 ft 483 kts 322°
2026-04-30 12:32 8.13674 124.83643 36063 ft 485 kts 322°
2026-04-30 12:32 8.18633 124.79614 36056 ft 482 kts 322°
2026-04-30 12:33 8.23859 124.75360 36046 ft 482 kts 322°
2026-04-30 12:33 8.29069 124.71114 36016 ft 482 kts 322°
2026-04-30 12:34 8.34298 124.66850 35990 ft 482 kts 322°
2026-04-30 12:34 8.39529 124.62581 35975 ft 482 kts 322°
2026-04-30 12:35 8.45125 124.58849 35954 ft 481 kts 332°
2026-04-30 12:35 8.50917 124.55513 35939 ft 480 kts 332°
2026-04-30 12:36 8.56766 124.52145 35921 ft 480 kts 332°
2026-04-30 12:36 8.62566 124.48800 35918 ft 480 kts 332°
2026-04-30 12:37 8.68384 124.45443 35910 ft 481 kts 332°
2026-04-30 12:37 8.74175 124.42099 35908 ft 479 kts 332°
2026-04-30 12:38 8.79983 124.38744 35900 ft 479 kts 332°
2026-04-30 12:38 8.85766 124.35401 35897 ft 480 kts 332°
2026-04-30 12:39 8.91584 124.32037 35893 ft 480 kts 332°
2026-04-30 12:39 8.97380 124.28685 35889 ft 480 kts 331°
2026-04-30 12:40 9.03194 124.25321 35891 ft 481 kts 331°
2026-04-30 12:40 9.09009 124.21948 35893 ft 480 kts 331°
2026-04-30 12:41 9.14822 124.18575 35893 ft 480 kts 331°
2026-04-30 12:41 9.20071 124.15530 35894 ft 480 kts 331°
2026-04-30 12:42 9.25918 124.12135 35891 ft 479 kts 331°
2026-04-30 12:42 9.31719 124.08766 35893 ft 480 kts 331°
2026-04-30 12:43 9.37500 124.05408 35898 ft 481 kts 331°
2026-04-30 12:43 9.42347 124.02609 35900 ft 481 kts 332°
2026-04-30 12:44 9.49141 123.98692 35900 ft 482 kts 331°
2026-04-30 12:44 9.54999 123.95289 35903 ft 481 kts 331°
2026-04-30 12:45 9.60810 123.91912 35899 ft 481 kts 331°
2026-04-30 12:45 9.66602 123.88545 35903 ft 481 kts 331°
2026-04-30 12:46 9.72460 123.85139 35911 ft 480 kts 331°
2026-04-30 12:46 9.78270 123.81760 35908 ft 481 kts 331°
2026-04-30 12:47 9.84073 123.78384 35905 ft 480 kts 331°
2026-04-30 12:47 9.89893 123.74997 35904 ft 481 kts 331°
2026-04-30 12:48 9.95716 123.71603 35917 ft 482 kts 331°
2026-04-30 12:48 10.01542 123.68204 35917 ft 481 kts 331°
2026-04-30 12:49 10.07346 123.64816 35927 ft 481 kts 331°
2026-04-30 12:49 10.12804 123.61629 35918 ft 480 kts 331°
2026-04-30 12:50 10.18650 123.58216 35916 ft 480 kts 331°
2026-04-30 12:50 10.24421 123.54844 35911 ft 480 kts 331°
2026-04-30 12:51 10.30214 123.51458 35909 ft 479 kts 331°
2026-04-30 12:51 10.36022 123.48070 35911 ft 480 kts 331°
2026-04-30 12:52 10.41808 123.44693 35928 ft 479 kts 331°
2026-04-30 12:52 10.47600 123.41306 35937 ft 479 kts 331°
2026-04-30 12:53 10.53401 123.37920 35942 ft 480 kts 331°
2026-04-30 12:53 10.59201 123.34531 35950 ft 478 kts 331°
2026-04-30 12:54 10.64976 123.31156 35961 ft 478 kts 331°
2026-04-30 12:54 10.70758 123.27778 35965 ft 477 kts 331°
2026-04-30 12:55 10.76502 123.24419 35976 ft 477 kts 330°
2026-04-30 12:55 10.82254 123.21046 35955 ft 478 kts 330°
2026-04-30 12:56 10.88054 123.17645 35929 ft 478 kts 330°
2026-04-30 12:56 10.93817 123.14264 35922 ft 478 kts 330°
2026-04-30 12:57 10.99560 123.10892 35913 ft 477 kts 330°
2026-04-30 12:57 11.05357 123.07489 35909 ft 476 kts 330°
2026-04-30 12:58 11.10833 123.04273 35913 ft 476 kts 330°
2026-04-30 12:58 11.16596 123.00887 35912 ft 477 kts 330°
2026-04-30 12:59 11.22372 122.97491 35912 ft 478 kts 330°
2026-04-30 12:59 11.28145 122.94096 35914 ft 478 kts 330°
2026-04-30 13:00 11.33909 122.90704 35915 ft 477 kts 330°
2026-04-30 13:00 11.38669 122.87901 35913 ft 477 kts 330°
2026-04-30 13:01 11.44437 122.84504 35913 ft 477 kts 330°
2026-04-30 13:01 11.51178 122.80531 35913 ft 477 kts 330°
2026-04-30 13:02 11.56907 122.77153 35914 ft 477 kts 330°
2026-04-30 13:02 11.62603 122.73665 35917 ft 478 kts 327°
2026-04-30 13:03 11.68128 122.69902 35913 ft 478 kts 327°
2026-04-30 13:03 11.73683 122.66132 35913 ft 476 kts 327°
2026-04-30 13:04 11.79225 122.62382 35915 ft 477 kts 327°
2026-04-30 13:04 11.84760 122.58643 35913 ft 476 kts 327°
2026-04-30 13:05 11.90290 122.54910 35915 ft 478 kts 327°
2026-04-30 13:06 11.98620 122.49287 35911 ft 477 kts 327°
2026-04-30 13:06 12.04174 122.45537 35913 ft 478 kts 327°
2026-04-30 13:07 12.09702 122.41802 35913 ft 477 kts 327°
2026-04-30 13:07 12.15259 122.38047 35914 ft 479 kts 327°
2026-04-30 13:08 12.20844 122.34271 35915 ft 477 kts 326°
2026-04-30 13:08 12.26367 122.30535 35917 ft 477 kts 326°
2026-04-30 13:09 12.31894 122.26794 35917 ft 478 kts 326°
2026-04-30 13:09 12.37434 122.23043 35920 ft 477 kts 326°
2026-04-30 13:10 12.42974 122.19202 35923 ft 479 kts 325°
2026-04-30 13:10 12.48494 122.15363 35921 ft 477 kts 326°
2026-04-30 13:11 12.53967 122.11556 35919 ft 476 kts 326°
2026-04-30 13:11 12.59444 122.07748 35837 ft 473 kts 325°
2026-04-30 13:11 12.62196 122.05833 35566 ft 473 kts 325°
2026-04-30 13:12 12.64908 122.03947 35138 ft 476 kts 325°
2026-04-30 13:12 12.67665 122.02029 34676 ft 480 kts 325°
2026-04-30 13:12 12.70450 122.00090 34301 ft 482 kts 325°
2026-04-30 13:13 12.76004 121.96223 33665 ft 483 kts 325°
2026-04-30 13:13 12.78773 121.94295 32938 ft 481 kts 325°
2026-04-30 13:13 12.84320 121.90430 31203 ft 485 kts 324°
2026-04-30 13:14 12.87114 121.88482 30460 ft 483 kts 324°
2026-04-30 13:14 12.89875 121.86557 29968 ft 476 kts 324°
2026-04-30 13:14 12.95311 121.82766 28889 ft 465 kts 324°
2026-04-30 13:15 12.97974 121.80907 28329 ft 461 kts 324°
2026-04-30 13:15 13.03223 121.77244 27207 ft 453 kts 325°
2026-04-30 13:15 13.05840 121.75416 26641 ft 449 kts 325°
2026-04-30 13:16 13.08387 121.73636 26082 ft 446 kts 325°
2026-04-30 13:16 13.10930 121.71859 25512 ft 442 kts 325°
2026-04-30 13:16 13.13364 121.70158 24964 ft 439 kts 326°
2026-04-30 13:17 13.18378 121.66652 23816 ft 432 kts 326°
2026-04-30 13:17 13.20844 121.64927 23252 ft 429 kts 326°
2026-04-30 13:17 13.24927 121.62070 22299 ft 425 kts 326°
2026-04-30 13:18 13.28168 121.59802 21559 ft 421 kts 326°
2026-04-30 13:18 13.32987 121.56427 20404 ft 417 kts 327°
2026-04-30 13:18 13.35394 121.54742 19814 ft 415 kts 327°
2026-04-30 13:19 13.37755 121.53087 19236 ft 413 kts 327°
2026-04-30 13:19 13.40115 121.51434 18651 ft 411 kts 327°
2026-04-30 13:19 13.42481 121.49775 18068 ft 409 kts 327°
2026-04-30 13:19 13.44826 121.48131 17476 ft 407 kts 327°
2026-04-30 13:20 13.47174 121.46484 16887 ft 405 kts 327°
2026-04-30 13:20 13.49473 121.44872 16438 ft 399 kts 327°
2026-04-30 13:20 13.51746 121.43276 16324 ft 383 kts 327°
2026-04-30 13:20 13.53890 121.41771 16212 ft 369 kts 327°
2026-04-30 13:21 13.56001 121.40290 16053 ft 357 kts 327°
2026-04-30 13:21 13.58019 121.38864 15967 ft 344 kts 326°
2026-04-30 13:21 13.59915 121.37453 15957 ft 336 kts 326°
2026-04-30 13:22 13.63813 121.34718 15763 ft 346 kts 337°
2026-04-30 13:22 13.66058 121.33796 15219 ft 348 kts 341°
2026-04-30 13:22 13.70699 121.32064 13910 ft 357 kts 342°
2026-04-30 13:23 13.73026 121.31199 13625 ft 353 kts 342°
2026-04-30 13:23 13.77702 121.29459 13149 ft 353 kts 342°
2026-04-30 13:24 13.82296 121.27750 12683 ft 349 kts 342°
2026-04-30 13:24 13.86865 121.26047 12304 ft 347 kts 342°
2026-04-30 13:25 13.91406 121.24356 11912 ft 344 kts 342°
2026-04-30 13:25 13.95936 121.22668 11487 ft 342 kts 342°
2026-04-30 13:26 14.02604 121.20182 11066 ft 340 kts 342°
2026-04-30 13:26 14.07065 121.18519 11047 ft 340 kts 342°
2026-04-30 13:27 14.11560 121.16841 11037 ft 340 kts 342°
2026-04-30 13:28 14.17809 121.13679 11000 ft 345 kts 313°
2026-04-30 13:28 14.19569 121.09150 10995 ft 350 kts 271°
2026-04-30 13:28 14.19273 121.06645 11001 ft 351 kts 258°
2026-04-30 13:29 14.18245 121.01738 11009 ft 350 kts 257°
2026-04-30 13:29 14.17197 120.96833 10998 ft 351 kts 257°
2026-04-30 13:30 14.15658 120.89646 10457 ft 325 kts 257°
2026-04-30 13:31 14.14720 120.85287 10318 ft 300 kts 257°
2026-04-30 13:31 14.13374 120.79035 9292 ft 298 kts 257°
2026-04-30 13:32 14.12483 120.74905 8743 ft 293 kts 257°
2026-04-30 13:32 14.11610 120.70917 8525 ft 279 kts 257°
2026-04-30 13:33 14.10776 120.67109 8237 ft 267 kts 257°
2026-04-30 13:33 14.09970 120.63406 7966 ft 263 kts 257°
2026-04-30 13:34 14.09569 120.61565 7527 ft 267 kts 257°
2026-04-30 13:34 14.08534 120.55994 6561 ft 263 kts 276°
2026-04-30 13:35 14.09123 120.54227 6181 ft 262 kts 304°
2026-04-30 13:35 14.11945 120.51924 5387 ft 261 kts 327°
2026-04-30 13:36 14.15007 120.49874 4976 ft 265 kts 327°
2026-04-30 13:36 14.16568 120.48814 4986 ft 267 kts 327°
2026-04-30 13:36 14.20053 120.47989 4977 ft 262 kts 17°
2026-04-30 13:37 14.21630 120.48862 4979 ft 260 kts 45°
2026-04-30 13:37 14.23461 120.52058 4996 ft 259 kts 64°
2026-04-30 13:38 14.25102 120.55385 4998 ft 259 kts 63°
2026-04-30 13:38 14.25930 120.57017 5000 ft 259 kts 63°
2026-04-30 13:38 14.27637 120.60298 5004 ft 259 kts 62°
2026-04-30 13:39 14.29377 120.63559 5008 ft 259 kts 62°
2026-04-30 13:39 14.31133 120.66791 5009 ft 259 kts 61°
2026-04-30 13:40 14.32022 120.68408 5009 ft 259 kts 61°
2026-04-30 13:40 14.32926 120.70040 5008 ft 259 kts 60°
2026-04-30 13:40 14.33817 120.71634 5007 ft 259 kts 60°
2026-04-30 13:40 14.34416 120.72701 5006 ft 259 kts 60°
2026-04-30 13:41 14.35630 120.74852 5003 ft 259 kts 60°
2026-04-30 13:41 14.36538 120.76460 5000 ft 259 kts 60°
2026-04-30 13:41 14.37460 120.78097 4704 ft 263 kts 60°
2026-04-30 13:41 14.38370 120.79714 4381 ft 262 kts 60°
2026-04-30 13:42 14.39289 120.81347 4045 ft 262 kts 60°
2026-04-30 13:42 14.40206 120.82976 3719 ft 258 kts 60°
2026-04-30 13:42 14.41956 120.86073 3080 ft 239 kts 60°
2026-04-30 13:43 14.42785 120.87534 2795 ft 227 kts 60°
2026-04-30 13:43 14.43551 120.88890 2536 ft 210 kts 60°
2026-04-30 13:43 14.44248 120.90132 2301 ft 194 kts 60°
2026-04-30 13:43 14.44900 120.91296 2064 ft 180 kts 60°
2026-04-30 13:44 14.45488 120.92348 1846 ft 158 kts 60°
2026-04-30 13:44 14.46016 120.93293 1642 ft 148 kts 60°
2026-04-30 13:44 14.46519 120.94193 1438 ft 143 kts 60°
2026-04-30 13:44 14.47006 120.95066 1240 ft 140 kts 60°
2026-04-30 13:45 14.47985 120.96815 843 ft 140 kts 61°
2026-04-30 13:45 14.48476 120.97691 646 ft 139 kts 60°
2026-04-30 13:45 14.48971 120.98550 461 ft 140 kts 62°
2026-04-30 13:46 14.49460 120.99430 278 ft 141 kts 62°
2026-04-30 13:46 14.49950 121.00303 100 ft 140 kts 63°
2026-04-30 13:46 14.50368 121.01060 88 ft 105 kts 60°
2026-04-30 13:46 14.50651 121.01574 88 ft 61 kts 60°
2026-04-30 13:47 14.50845 121.01922 88 ft 51 kts 60°
2026-04-30 13:47 14.50999 121.02181 88 ft 32 kts 45°
2026-04-30 13:47 14.51111 121.02280 88 ft 9 kts 40°
2026-04-30 13:47 14.51165 121.02303 88 ft 7 kts 342°
2026-04-30 13:48 14.51183 121.02257 88 ft 7 kts 262°
2026-04-30 13:48 14.51161 121.02205 88 ft 8 kts 241°
2026-04-30 13:48 14.51134 121.02155 88 ft 7 kts 240°
2026-04-30 13:48 14.51112 121.02116 88 ft 6 kts 240°
2026-04-30 13:49 14.51085 121.02066 88 ft 8 kts 240°
2026-04-30 13:49 14.51054 121.02011 88 ft 9 kts 240°
2026-04-30 13:49 14.51030 121.01967 88 ft 7 kts 240°
2026-04-30 13:49 14.51004 121.01921 88 ft 7 kts 240°
2026-04-30 13:50 14.50998 121.01911 88 ft 0 kts 240°
2026-04-30 13:51 14.50987 121.01891 88 ft 7 kts 240°
2026-04-30 13:52 14.50950 121.01824 88 ft 14 kts 240°
2026-04-30 13:52 14.50901 121.01736 88 ft 14 kts 240°
2026-04-30 13:52 14.50887 121.01682 88 ft 7 kts 284°
2026-04-30 13:52 14.50921 121.01637 88 ft 9 kts 314°
2026-04-30 13:53 14.50973 121.01585 88 ft 10 kts 314°
2026-04-30 13:53 14.51028 121.01527 88 ft 11 kts 314°
2026-04-30 13:53 14.51084 121.01468 88 ft 11 kts 314°
2026-04-30 13:53 14.51123 121.01427 88 ft 12 kts 314°
2026-04-30 13:54 14.51158 121.01357 88 ft 7 kts 239°
2026-04-30 13:54 14.51139 121.01338 88 ft 2 kts 221°
2026-04-30 13:54 14.51131 121.01332 88 ft 0 kts 219°